MLP103 LIEO-LIMC

Flight info

Callsign MLP103
Flight time 1h 8m
Altitude 30000
Route OKIVA P980 DIKEL DCT RATAP DCT MEGER DCT ANAKI P860 DEVOX
Aircraft A320/M-SDE3FGHIRWY/LB1

Departure

Time 2026-05-05 19:04
Airport Olbia Costa Smeralda Airport (LIEO)

Arrival

Time 2026-05-05 20:12
Airport Milan Malpensa International Airport (LIMC)
Time Latitude Longitude Altitude Speed Heading
2026-05-05 18:17 40.90204 9.51571 34 ft 0 kts 325°
2026-05-05 18:51 40.90193 9.51581 33 ft 2 kts 325°
2026-05-05 18:51 40.90178 9.51594 34 ft 2 kts 325°
2026-05-05 18:52 40.90166 9.51608 34 ft 2 kts 276°
2026-05-05 18:52 40.90166 9.51631 32 ft 2 kts 275°
2026-05-05 18:52 40.90167 9.51652 34 ft 2 kts 246°
2026-05-05 18:52 40.90170 9.51662 33 ft 0 kts 225°
2026-05-05 18:56 40.90152 9.51638 34 ft 8 kts 225°
2026-05-05 18:57 40.90123 9.51589 34 ft 6 kts 242°
2026-05-05 18:57 40.90105 9.51543 34 ft 8 kts 243°
2026-05-05 18:57 40.90038 9.51492 33 ft 14 kts 145°
2026-05-05 18:57 40.90019 9.51509 34 ft 1 kts 146°
2026-05-05 18:58 40.90004 9.51519 34 ft 11 kts 158°
2026-05-05 18:58 40.89905 9.51454 34 ft 18 kts 231°
2026-05-05 18:58 40.89829 9.51309 33 ft 20 kts 236°
2026-05-05 18:58 40.89749 9.51151 34 ft 21 kts 236°
2026-05-05 18:59 40.89662 9.50984 34 ft 23 kts 234°
2026-05-05 18:59 40.89569 9.50806 34 ft 24 kts 236°
2026-05-05 18:59 40.89471 9.50619 33 ft 25 kts 235°
2026-05-05 18:59 40.89390 9.50469 34 ft 20 kts 229°
2026-05-05 19:00 40.89285 9.50475 34 ft 16 kts 127°
2026-05-05 19:00 40.89263 9.50607 33 ft 12 kts 88°
2026-05-05 19:00 40.89285 9.50653 34 ft 0 kts 56°
2026-05-05 19:03 40.89300 9.50682 14 ft 20 kts 56°
2026-05-05 19:03 40.89535 9.51130 33 ft 95 kts 55°
2026-05-05 19:03 40.90022 9.52061 33 ft 148 kts 56°
2026-05-05 19:03 40.90660 9.53282 368 ft 165 kts 55°
2026-05-05 19:04 40.91314 9.54548 1004 ft 168 kts 55°
2026-05-05 19:04 40.91983 9.55813 1677 ft 168 kts 57°
2026-05-05 19:04 40.92678 9.57130 2095 ft 185 kts 56°
2026-05-05 19:04 40.93455 9.58603 2379 ft 207 kts 56°
2026-05-05 19:05 40.94323 9.60242 2686 ft 227 kts 55°
2026-05-05 19:05 40.95278 9.62035 3067 ft 247 kts 56°
2026-05-05 19:05 40.96285 9.63918 3792 ft 253 kts 56°
2026-05-05 19:05 40.97467 9.65666 4562 ft 260 kts 34°
2026-05-05 19:06 40.99160 9.66463 5293 ft 264 kts
2026-05-05 19:06 41.00979 9.65952 5765 ft 276 kts 327°
2026-05-05 19:06 41.02582 9.64527 6530 ft 280 kts 322°
2026-05-05 19:06 41.04193 9.63047 7340 ft 283 kts 322°
2026-05-05 19:07 41.05826 9.61557 8158 ft 287 kts 322°
2026-05-05 19:07 41.07464 9.60027 8977 ft 289 kts 317°
2026-05-05 19:07 41.08863 9.58122 9780 ft 289 kts 303°
2026-05-05 19:07 41.10052 9.55945 10364 ft 300 kts 302°
2026-05-05 19:08 41.11316 9.53609 10602 ft 323 kts 302°
2026-05-05 19:08 41.12653 9.51148 11109 ft 333 kts 303°
2026-05-05 19:08 41.14023 9.48641 11815 ft 337 kts 303°
2026-05-05 19:08 41.15410 9.46110 12576 ft 340 kts 302°
2026-05-05 19:09 41.16806 9.43558 13330 ft 343 kts 302°
2026-05-05 19:09 41.18191 9.41021 14019 ft 346 kts 302°
2026-05-05 19:09 41.19605 9.38421 14640 ft 349 kts 302°
2026-05-05 19:09 41.21030 9.35794 15258 ft 352 kts 301°
2026-05-05 19:10 41.22468 9.33139 15881 ft 355 kts 301°
2026-05-05 19:10 41.23869 9.30430 16495 ft 357 kts 299°
2026-05-05 19:10 41.25230 9.27651 17102 ft 360 kts 298°
2026-05-05 19:10 41.26575 9.24823 17709 ft 363 kts 297°
2026-05-05 19:11 41.27921 9.21966 18302 ft 366 kts 297°
2026-05-05 19:11 41.29284 9.19084 18839 ft 369 kts 297°
2026-05-05 19:11 41.30726 9.16244 19389 ft 375 kts 305°
2026-05-05 19:11 41.32616 9.13808 19943 ft 384 kts 319°
2026-05-05 19:12 41.34956 9.12010 20496 ft 394 kts 333°
2026-05-05 19:12 41.37617 9.11009 21042 ft 404 kts 348°
2026-05-05 19:12 41.40448 9.10863 21590 ft 411 kts 358°
2026-05-05 19:12 41.43316 9.10959 22146 ft 414 kts 358°
2026-05-05 19:13 41.46203 9.11058 22679 ft 416 kts 358°
2026-05-05 19:13 41.49109 9.11160 23227 ft 419 kts 358°
2026-05-05 19:13 41.52029 9.11265 23701 ft 421 kts 358°
2026-05-05 19:13 41.54972 9.11369 24103 ft 424 kts 357°
2026-05-05 19:14 41.57928 9.11425 24491 ft 427 kts 355°
2026-05-05 19:14 41.60905 9.11413 24866 ft 429 kts 354°
2026-05-05 19:14 41.63898 9.11361 25239 ft 432 kts 354°
2026-05-05 19:14 41.66922 9.11298 25596 ft 435 kts 353°
2026-05-05 19:15 41.69958 9.11241 25953 ft 438 kts 353°
2026-05-05 19:15 41.73018 9.11200 26299 ft 441 kts 353°
2026-05-05 19:15 41.76097 9.11173 26627 ft 444 kts 353°
2026-05-05 19:15 41.79203 9.11152 26960 ft 447 kts 353°
2026-05-05 19:16 41.82325 9.11132 27303 ft 450 kts 353°
2026-05-05 19:16 41.85460 9.11111 27668 ft 452 kts 353°
2026-05-05 19:16 41.88621 9.11089 28017 ft 455 kts 353°
2026-05-05 19:16 41.91790 9.11066 28319 ft 457 kts 353°
2026-05-05 19:17 41.94980 9.11044 28643 ft 460 kts 353°
2026-05-05 19:17 41.98185 9.11021 28963 ft 462 kts 353°
2026-05-05 19:17 42.01409 9.10995 29270 ft 465 kts 353°
2026-05-05 19:17 42.04654 9.10967 29555 ft 467 kts 353°
2026-05-05 19:18 42.07909 9.10941 29891 ft 468 kts 353°
2026-05-05 19:18 42.11109 9.10919 29963 ft 462 kts 353°
2026-05-05 19:18 42.14277 9.10907 29970 ft 450 kts 352°
2026-05-05 19:18 42.17387 9.10893 29968 ft 445 kts 352°
2026-05-05 19:19 42.23555 9.10841 29962 ft 443 kts 352°
2026-05-05 19:19 42.29714 9.10773 29963 ft 442 kts 352°
2026-05-05 19:20 42.35868 9.10723 29966 ft 442 kts 352°
2026-05-05 19:20 42.42025 9.10690 29960 ft 443 kts 353°
2026-05-05 19:21 42.48186 9.10644 29955 ft 443 kts 352°
2026-05-05 19:21 42.54332 9.10590 29955 ft 441 kts 352°
2026-05-05 19:22 42.60481 9.10540 29951 ft 442 kts 352°
2026-05-05 19:22 42.66632 9.10487 29966 ft 442 kts 352°
2026-05-05 19:23 42.72797 9.10496 29961 ft 446 kts 357°
2026-05-05 19:23 42.78995 9.11224 29956 ft 447 kts 358°
2026-05-05 19:24 42.84151 9.11834 29954 ft 447 kts 358°
2026-05-05 19:24 42.90358 9.12555 29958 ft 448 kts 358°
2026-05-05 19:25 42.96570 9.13272 29948 ft 449 kts 358°
2026-05-05 19:25 43.02802 9.14003 29951 ft 450 kts 358°
2026-05-05 19:26 43.09041 9.14728 29961 ft 450 kts 358°
2026-05-05 19:26 43.15289 9.15471 29959 ft 451 kts 358°
2026-05-05 19:27 43.21545 9.16217 29951 ft 451 kts 358°
2026-05-05 19:27 43.27800 9.16959 29971 ft 451 kts 358°
2026-05-05 19:28 43.33964 9.16705 29960 ft 436 kts 341°
2026-05-05 19:28 43.39645 9.14296 29956 ft 424 kts 331°
2026-05-05 19:29 43.45181 9.11464 29954 ft 425 kts 331°
2026-05-05 19:29 43.50932 9.09241 29976 ft 435 kts 339°
2026-05-05 19:30 43.56862 9.07542 29960 ft 436 kts 339°
2026-05-05 19:30 43.62811 9.05858 29942 ft 437 kts 339°
2026-05-05 19:31 43.68772 9.04150 29958 ft 438 kts 339°
2026-05-05 19:31 43.74740 9.02431 29947 ft 438 kts 339°
2026-05-05 19:32 43.80716 9.00712 29949 ft 439 kts 339°
2026-05-05 19:32 43.86654 8.99011 29573 ft 429 kts 339°
2026-05-05 19:33 43.89570 8.98178 29321 ft 426 kts 339°
2026-05-05 19:33 43.92464 8.97343 29039 ft 424 kts 339°
2026-05-05 19:33 43.95346 8.96505 28767 ft 422 kts 339°
2026-05-05 19:33 43.98215 8.95666 28490 ft 421 kts 339°
2026-05-05 19:34 44.01074 8.94832 28219 ft 419 kts 339°
2026-05-05 19:34 44.03922 8.94004 27948 ft 418 kts 340°
2026-05-05 19:34 44.06758 8.93180 27683 ft 416 kts 340°
2026-05-05 19:35 44.12418 8.91531 27183 ft 415 kts 340°
2026-05-05 19:35 44.15239 8.90705 26925 ft 413 kts 340°
2026-05-05 19:35 44.18046 8.89884 26668 ft 412 kts 340°
2026-05-05 19:35 44.20849 8.89066 26417 ft 411 kts 340°
2026-05-05 19:36 44.23641 8.88251 26166 ft 409 kts 340°
2026-05-05 19:36 44.26420 8.87440 25926 ft 406 kts 341°
2026-05-05 19:36 44.29205 8.86624 24929 ft 417 kts 341°
2026-05-05 19:36 44.32074 8.85767 23823 ft 435 kts 342°
2026-05-05 19:37 44.35038 8.84892 23460 ft 428 kts 342°
2026-05-05 19:37 44.37904 8.84059 23183 ft 418 kts 343°
2026-05-05 19:37 44.40758 8.83234 22903 ft 409 kts 342°
2026-05-05 19:37 44.43513 8.82433 22633 ft 400 kts 342°
2026-05-05 19:38 44.46178 8.81653 22348 ft 393 kts 342°
2026-05-05 19:38 44.48876 8.80857 21877 ft 390 kts 342°
2026-05-05 19:38 44.51491 8.80079 21398 ft 388 kts 342°
2026-05-05 19:38 44.54132 8.79292 20718 ft 392 kts 342°
2026-05-05 19:39 44.56844 8.78478 19686 ft 406 kts 343°
2026-05-05 19:39 44.59656 8.77632 18644 ft 419 kts 343°
2026-05-05 19:39 44.62558 8.76780 17448 ft 433 kts 346°
2026-05-05 19:39 44.65621 8.76664 16418 ft 449 kts
2026-05-05 19:40 44.68567 8.77936 16148 ft 441 kts 25°
2026-05-05 19:40 44.71046 8.80342 16000 ft 427 kts 41°
2026-05-05 19:40 44.73170 8.83167 15886 ft 413 kts 44°
2026-05-05 19:40 44.75198 8.85923 15758 ft 399 kts 44°
2026-05-05 19:41 44.77160 8.88601 15626 ft 387 kts 44°
2026-05-05 19:41 44.79059 8.91199 15505 ft 375 kts 44°
2026-05-05 19:41 44.81011 8.93526 15381 ft 362 kts 30°
2026-05-05 19:41 44.83250 8.94954 15255 ft 347 kts 12°
2026-05-05 19:42 44.85583 8.95390 15096 ft 332 kts 354°
2026-05-05 19:42 44.87819 8.94901 14823 ft 321 kts 337°
2026-05-05 19:42 44.89805 8.93592 14512 ft 311 kts 321°
2026-05-05 19:42 44.91426 8.91653 14192 ft 302 kts 306°
2026-05-05 19:43 44.92599 8.89255 13875 ft 295 kts 292°
2026-05-05 19:43 44.93341 8.86583 13505 ft 291 kts 285°
2026-05-05 19:43 44.93997 8.83887 13114 ft 290 kts 285°
2026-05-05 19:43 44.94654 8.81199 12746 ft 289 kts 285°
2026-05-05 19:44 44.95310 8.78521 12377 ft 289 kts 285°
2026-05-05 19:44 44.95967 8.75843 11999 ft 288 kts 286°
2026-05-05 19:44 44.96623 8.73169 11629 ft 288 kts 286°
2026-05-05 19:44 44.97273 8.70503 11265 ft 287 kts 286°
2026-05-05 19:45 44.97919 8.67847 10892 ft 286 kts 286°
2026-05-05 19:45 44.98564 8.65198 10523 ft 285 kts 286°
2026-05-05 19:45 44.99260 8.62615 10163 ft 286 kts 295°
2026-05-05 19:45 45.00445 8.60335 9967 ft 282 kts 314°
2026-05-05 19:46 45.01974 8.58767 9963 ft 270 kts 330°
2026-05-05 19:46 45.03718 8.57896 9970 ft 266 kts 346°
2026-05-05 19:46 45.05532 8.57394 9973 ft 265 kts 347°
2026-05-05 19:46 45.07345 8.56894 9855 ft 265 kts 347°
2026-05-05 19:47 45.09156 8.56395 9714 ft 265 kts 347°
2026-05-05 19:47 45.10961 8.55892 9591 ft 264 kts 347°
2026-05-05 19:47 45.12764 8.55389 9457 ft 264 kts 347°
2026-05-05 19:47 45.14563 8.54891 9343 ft 263 kts 347°
2026-05-05 19:48 45.16357 8.54392 9195 ft 262 kts 347°
2026-05-05 19:48 45.18142 8.53895 9139 ft 259 kts 347°
2026-05-05 19:48 45.19867 8.53415 9017 ft 248 kts 347°
2026-05-05 19:48 45.21527 8.52955 8861 ft 238 kts 347°
2026-05-05 19:49 45.23150 8.52506 8712 ft 238 kts 347°
2026-05-05 19:49 45.24224 8.52209 8579 ft 238 kts 347°
2026-05-05 19:49 45.26389 8.51610 8286 ft 236 kts 346°
2026-05-05 19:49 45.27999 8.51163 8079 ft 235 kts 347°
2026-05-05 19:50 45.29601 8.50738 7845 ft 233 kts 353°
2026-05-05 19:50 45.31196 8.50981 7618 ft 233 kts 21°
2026-05-05 19:50 45.32545 8.52202 7400 ft 231 kts 48°
2026-05-05 19:50 45.33378 8.54117 7158 ft 228 kts 76°
2026-05-05 19:51 45.33707 8.56318 6934 ft 229 kts 82°
2026-05-05 19:51 45.34007 8.58534 6707 ft 228 kts 82°
2026-05-05 19:51 45.34311 8.60742 6470 ft 227 kts 81°
2026-05-05 19:51 45.34476 8.62947 6218 ft 222 kts 100°
2026-05-05 19:52 45.33977 8.64962 6062 ft 215 kts 127°
2026-05-05 19:52 45.32912 8.66398 6008 ft 211 kts 154°
2026-05-05 19:52 45.31523 8.67030 6013 ft 210 kts 171°
2026-05-05 19:52 45.30086 8.67418 6008 ft 211 kts 171°
2026-05-05 19:53 45.28645 8.67811 6009 ft 211 kts 170°
2026-05-05 19:53 45.27201 8.68209 6009 ft 211 kts 170°
2026-05-05 19:53 45.25759 8.68605 6008 ft 211 kts 170°
2026-05-05 19:53 45.24316 8.68999 6006 ft 211 kts 170°
2026-05-05 19:54 45.22873 8.69395 6004 ft 211 kts 170°
2026-05-05 19:54 45.21426 8.69792 6005 ft 211 kts 170°
2026-05-05 19:54 45.20003 8.70183 6001 ft 211 kts 170°
2026-05-05 19:54 45.18559 8.70579 5980 ft 212 kts 170°
2026-05-05 19:55 45.17115 8.70977 5978 ft 211 kts 170°
2026-05-05 19:55 45.15673 8.71376 5980 ft 211 kts 170°
2026-05-05 19:55 45.14228 8.71777 5982 ft 212 kts 170°
2026-05-05 19:55 45.12784 8.72186 5980 ft 211 kts 169°
2026-05-05 19:56 45.11341 8.72595 5984 ft 211 kts 169°
2026-05-05 19:56 45.09898 8.73003 5981 ft 212 kts 169°
2026-05-05 19:56 45.08454 8.73415 5984 ft 212 kts 169°
2026-05-05 19:56 45.07009 8.73826 5981 ft 212 kts 169°
2026-05-05 19:57 45.05566 8.74234 5980 ft 211 kts 169°
2026-05-05 19:57 45.04590 8.74511 5984 ft 212 kts 169°
2026-05-05 19:57 45.02680 8.75052 5983 ft 211 kts 169°
2026-05-05 19:57 45.01239 8.75462 5985 ft 211 kts 169°
2026-05-05 19:58 44.99797 8.75872 5980 ft 211 kts 169°
2026-05-05 19:58 44.98355 8.76289 5977 ft 211 kts 166°
2026-05-05 19:58 44.97088 8.77295 5974 ft 214 kts 133°
2026-05-05 19:58 44.96450 8.79184 5977 ft 219 kts 98°
2026-05-05 19:59 44.96606 8.81333 5965 ft 224 kts 78°
2026-05-05 19:59 44.97066 8.83464 5972 ft 229 kts 72°
2026-05-05 19:59 44.97893 8.85392 5950 ft 236 kts 50°
2026-05-05 19:59 44.99074 8.87075 5590 ft 242 kts 44°
2026-05-05 20:00 45.00280 8.88655 5413 ft 233 kts 44°
2026-05-05 20:00 45.01470 8.90192 5132 ft 231 kts 44°
2026-05-05 20:00 45.02657 8.91717 4829 ft 229 kts 44°
2026-05-05 20:00 45.03872 8.93156 4523 ft 228 kts 30°
2026-05-05 20:01 45.05348 8.93861 4236 ft 224 kts
2026-05-05 20:01 45.06857 8.93576 4011 ft 217 kts 341°
2026-05-05 20:01 45.08323 8.92969 3979 ft 221 kts 342°
2026-05-05 20:01 45.09802 8.92373 3980 ft 221 kts 343°
2026-05-05 20:02 45.11286 8.91781 3981 ft 222 kts 343°
2026-05-05 20:02 45.12767 8.91190 3981 ft 221 kts 343°
2026-05-05 20:02 45.14249 8.90598 3981 ft 221 kts 343°
2026-05-05 20:02 45.15731 8.90002 3982 ft 222 kts 343°
2026-05-05 20:03 45.17212 8.89404 3981 ft 221 kts 342°
2026-05-05 20:03 45.18691 8.88805 3981 ft 221 kts 343°
2026-05-05 20:03 45.20173 8.88208 3987 ft 221 kts 343°
2026-05-05 20:03 45.21649 8.87609 3983 ft 220 kts 343°
2026-05-05 20:04 45.23119 8.87011 3981 ft 219 kts 343°
2026-05-05 20:04 45.24586 8.86415 3980 ft 219 kts 343°
2026-05-05 20:04 45.26048 8.85821 3999 ft 219 kts 343°
2026-05-05 20:04 45.27510 8.85226 4002 ft 219 kts 343°
2026-05-05 20:05 45.28972 8.84631 4000 ft 218 kts 343°
2026-05-05 20:05 45.30435 8.84039 4002 ft 219 kts 344°
2026-05-05 20:05 45.31897 8.83446 4003 ft 218 kts 343°
2026-05-05 20:05 45.33358 8.82849 4004 ft 218 kts 343°
2026-05-05 20:06 45.34817 8.82252 4006 ft 218 kts 343°
2026-05-05 20:06 45.36280 8.81654 4007 ft 218 kts 343°
2026-05-05 20:06 45.37694 8.81076 3999 ft 204 kts 344°
2026-05-05 20:06 45.39011 8.80538 3993 ft 191 kts 343°
2026-05-05 20:07 45.40263 8.79971 4003 ft 188 kts 338°
2026-05-05 20:07 45.41501 8.79384 4004 ft 188 kts 345°
2026-05-05 20:07 45.42773 8.78952 4007 ft 188 kts 348°
2026-05-05 20:07 45.44053 8.78578 4006 ft 188 kts 349°
2026-05-05 20:08 45.45335 8.78220 3917 ft 188 kts 349°
2026-05-05 20:08 45.46610 8.77869 3725 ft 187 kts 349°
2026-05-05 20:08 45.47883 8.77519 3491 ft 186 kts 349°
2026-05-05 20:08 45.49151 8.77171 3252 ft 185 kts 350°
2026-05-05 20:09 45.50414 8.76823 3017 ft 183 kts 350°
2026-05-05 20:09 45.51671 8.76478 2788 ft 184 kts 350°
2026-05-05 20:09 45.52918 8.76135 2501 ft 181 kts 351°
2026-05-05 20:09 45.54141 8.75798 2256 ft 174 kts 351°
2026-05-05 20:10 45.54909 8.75586 2106 ft 166 kts 351°
2026-05-05 20:10 45.56013 8.75282 1885 ft 158 kts 351°
2026-05-05 20:10 45.57075 8.74990 1675 ft 154 kts 351°
2026-05-05 20:10 45.58119 8.74703 1452 ft 151 kts 350°
2026-05-05 20:11 45.59137 8.74422 1243 ft 148 kts 349°
2026-05-05 20:11 45.60142 8.74146 1045 ft 146 kts 349°
2026-05-05 20:11 45.61137 8.73871 867 ft 145 kts 348°
2026-05-05 20:11 45.62117 8.73601 739 ft 137 kts 349°
2026-05-05 20:12 45.62897 8.73383 735 ft 88 kts 349°
2026-05-05 20:12 45.63152 8.73236 736 ft 16 kts 314°
2026-05-05 20:12 45.63246 8.73099 736 ft 21 kts 314°
2026-05-05 20:12 45.63315 8.72953 736 ft 15 kts 302°
2026-05-05 20:13 45.63373 8.72823 736 ft 15 kts 303°
2026-05-05 20:13 45.63404 8.72681 736 ft 16 kts 270°
2026-05-05 20:13 45.63392 8.72518 736 ft 17 kts 261°
2026-05-05 20:13 45.63370 8.72344 737 ft 18 kts 258°
2026-05-05 20:14 45.63344 8.72163 739 ft 19 kts 258°
2026-05-05 20:14 45.63322 8.72015 737 ft 13 kts 252°
2026-05-05 20:14 45.63254 8.71976 737 ft 11 kts 178°
2026-05-05 20:14 45.63187 8.71988 736 ft 9 kts 170°
2026-05-05 20:15 45.63129 8.72003 737 ft 8 kts 169°
2026-05-05 20:15 45.63081 8.72015 737 ft 6 kts 169°
2026-05-05 20:15 45.63040 8.72026 737 ft 5 kts 168°
2026-05-05 20:15 45.62983 8.72045 737 ft 14 kts 168°
2026-05-05 20:16 45.62877 8.72079 737 ft 16 kts 166°
2026-05-05 20:16 45.62769 8.72108 737 ft 16 kts 169°
2026-05-05 20:16 45.62664 8.72137 737 ft 15 kts 169°
2026-05-05 20:16 45.62564 8.72165 735 ft 14 kts 168°
2026-05-05 20:17 45.62472 8.72191 736 ft 13 kts 169°
2026-05-05 20:17 45.62388 8.72201 737 ft 11 kts 197°
2026-05-05 20:17 45.62363 8.72192 737 ft 0 kts 174°
2026-05-05 20:17 45.62363 8.72180 737 ft 2 kts 268°
2026-05-05 20:18 45.62364 8.72120 737 ft 9 kts 266°
2026-05-05 20:18 45.62353 8.72034 737 ft 8 kts 259°
2026-05-05 20:18 45.62342 8.71957 737 ft 8 kts 259°
2026-05-05 20:18 45.62366 8.71910 736 ft 6 kts 331°
2026-05-05 20:19 45.62395 8.71909 736 ft 2 kts 47°
2026-05-05 20:19 45.62402 8.71931 736 ft 2 kts 71°
2026-05-05 20:19 45.62406 8.71958 736 ft 6 kts 78°
2026-05-05 20:19 45.62415 8.72018 737 ft 0 kts 78°